Le nostre stazioni meteo in Italia

Pubblicità
Il mio iltempo24.it
Decimomannu, Italia (16546): Temperatura & dewpoint: 14.10.2017 09:00:00 - 20.10.2017 09:00:00 (CEST)Decimomannu, Italia (16546): velocità del vento: 14.10.2017 09:00:00 - 20.10.2017 09:00:00 (CEST)Decimomannu, Italia (16546): direzione del vento: 14.10.2017 09:00:00 - 20.10.2017 09:00:00 (CEST)Decimomannu, Italia (16546): reduced air pressure: 14.10.2017 09:00:00 - 20.10.2017 09:00:00 (CEST)Decimomannu, Italia (16546): visibility: 14.10.2017 09:00:00 - 20.10.2017 09:00:00 (CEST)
Data & Tempo tt [°C] td [°C] ff [km/h] ff [kn] dd ppp [hPa] vv [km]
20.10.2017 09:00:00 - - - - - - -
20.10.2017 08:00:00 16,8 14,8 5 3 ESE 1013,3 10
20.10.2017 07:00:00 17,0 15,0 4 2 E - 10
20.10.2017 06:00:00 18,0 16,0 8 4 NE - 10
20.10.2017 05:00:00 19,0 16,4 9 5 E 1013,0 10
20.10.2017 04:00:00 18,0 16,0 9 5 E - 10
20.10.2017 03:00:00 18,0 16,0 8 4 E - 10
20.10.2017 02:00:00 18,4 15,8 11 6 E 1013,0 10
20.10.2017 01:00:00 19,0 17,0 9 5 E - 10
20.10.2017 00:00:00 18,0 16,0 9 5 E - 10
19.10.2017 23:00:00 18,0 16,2 13 7 E 1012,9 10
19.10.2017 22:00:00 19,0 16,0 9 5 ESE - 10
19.10.2017 21:00:00 19,0 16,0 8 4 SE - 10
19.10.2017 20:00:00 20,0 16,2 11 6 ESE 1012,5 10
19.10.2017 19:00:00 21,0 19,0 18 10 SE - 10
19.10.2017 18:00:00 23,0 16,0 22 12 SSE - 10
19.10.2017 17:00:00 24,0 17,0 26 14 SSE 1012,3 10
19.10.2017 16:00:00 24,0 19,0 26 14 SSE - 10
19.10.2017 15:00:00 24,0 19,0 28 15 SSE - 10
19.10.2017 14:00:00 23,0 19,8 22 12 SSE 1014,1 10
19.10.2017 13:00:00 23,0 20,0 26 14 SSE - 10
19.10.2017 12:00:00 24,0 18,0 18 10 SE - 10
19.10.2017 11:00:00 24,0 19,1 18 10 SSE 1014,6 10
19.10.2017 10:00:00 20,0 16,0 4 2 E - 10
19.10.2017 09:00:00 16,0 13,0 8 4 NNE - 10
19.10.2017 08:00:00 13,4 10,9 9 5 NE 1014,9 10
19.10.2017 07:00:00 14,0 11,0 11 6 NE - 10
19.10.2017 06:00:00 12,0 10,0 5 3 NNO - 10
19.10.2017 05:00:00 13,2 10,5 11 6 NE 1015,2 10
19.10.2017 04:00:00 16,0 14,0 11 6 ENE - 10
19.10.2017 03:00:00 14,0 11,0 8 4 NE - 10
19.10.2017 02:00:00 14,4 11,7 8 4 ENE 1016,3 10
19.10.2017 01:00:00 14,0 12,0 11 6 E - 10
19.10.2017 00:00:00 16,0 14,0 9 5 NE - 10
18.10.2017 23:00:00 17,4 14,7 9 5 ENE 1016,8 10
18.10.2017 22:00:00 18,0 15,0 8 4 E - 10
18.10.2017 21:00:00 19,0 16,0 18 10 SSE - 10
18.10.2017 20:00:00 19,8 17,6 21 11 SSE 1016,1 10
18.10.2017 19:00:00 20,0 18,0 18 10 SSE - 10
18.10.2017 18:00:00 21,0 19,0 21 11 SE - 10
18.10.2017 17:00:00 22,8 20,1 24 13 SSE 1016,2 10
18.10.2017 16:00:00 24,0 20,0 26 14 SSE - 10
18.10.2017 15:00:00 24,0 16,0 22 12 SSE - 10
18.10.2017 14:00:00 24,6 17,4 18 10 SSE 1017,7 10
18.10.2017 13:00:00 25,0 18,0 18 10 SSE - 10
18.10.2017 12:00:00 24,0 18,0 16 9 SSE - 10
18.10.2017 11:00:00 20,2 15,8 5 3 SO 1019,6 10
18.10.2017 10:00:00 16,0 13,0 2 1 NNO - 10
18.10.2017 09:00:00 10,0 8,0 5 3 NO - 10
18.10.2017 08:00:00 10,2 7,6 11 6 N 1019,9 10
18.10.2017 07:00:00 10,0 8,0 9 5 N - 10
18.10.2017 06:00:00 10,0 8,0 8 4 NNO - 10
18.10.2017 05:00:00 11,6 8,8 8 4 NNO 1020,3 10
18.10.2017 04:00:00 11,0 9,0 5 3 ONO - 10
18.10.2017 03:00:00 14,0 11,0 8 4 NE - 9
18.10.2017 02:00:00 13,8 11,1 9 5 ENE 1021,7 10
18.10.2017 01:00:00 14,0 12,0 8 4 NNE - 10
18.10.2017 00:00:00 15,0 12,0 4 2 ENE - 10
17.10.2017 23:00:00 15,0 12,5 5 3 E 1022,0 10
17.10.2017 22:00:00 16,0 14,0 5 3 ENE - 10
17.10.2017 21:00:00 17,0 15,0 8 4 SE - 10
17.10.2017 20:00:00 18,0 15,8 15 8 SE 1021,7 10
17.10.2017 19:00:00 19,0 17,0 18 10 SE - 10
17.10.2017 18:00:00 21,0 18,0 21 11 SE - 10
17.10.2017 17:00:00 22,2 17,4 21 11 SSE 1021,7 10
17.10.2017 16:00:00 23,0 16,0 22 12 SSE - 10
17.10.2017 15:00:00 24,0 17,0 22 12 SE - 10
17.10.2017 14:00:00 23,8 14,2 21 11 SSE 1023,1 10
17.10.2017 13:00:00 24,0 17,0 15 8 SSE - 10
17.10.2017 12:00:00 23,0 16,0 15 8 SSE - 10
17.10.2017 11:00:00 21,4 15,0 5 3 S 1024,9 10
17.10.2017 10:00:00 16,0 11,0 2 1 NE - 10
17.10.2017 09:00:00 13,0 10,0 2 1 N - 10
17.10.2017 08:00:00 9,0 6,4 5 3 NO 1024,9 10
17.10.2017 07:00:00 9,0 7,0 4 2 NNO - 7
17.10.2017 06:00:00 10,0 7,0 5 3 NNE - 10
17.10.2017 05:00:00 10,0 7,6 2 1 NNO 1024,9 10
17.10.2017 04:00:00 11,0 8,0 9 5 NE - 10
17.10.2017 03:00:00 12,0 9,0 9 5 NE - 10
17.10.2017 02:00:00 13,0 10,4 9 5 NE 1025,9 10
17.10.2017 01:00:00 14,0 11,0 8 4 NE - 10
17.10.2017 00:00:00 15,0 13,0 4 2 NE - 10
16.10.2017 23:00:00 16,0 13,7 8 4 E 1026,0 10
16.10.2017 22:00:00 17,0 14,0 8 4 E - 10
16.10.2017 21:00:00 18,0 16,0 4 2 ENE - 10
16.10.2017 20:00:00 20,0 18,0 11 6 SE 1026,0 10
16.10.2017 19:00:00 19,0 17,0 16 9 SE - 10
16.10.2017 18:00:00 22,0 18,0 22 12 SE - 10
16.10.2017 17:00:00 22,4 17,5 21 11 SSE 1025,5 10
16.10.2017 16:00:00 23,0 17,0 26 14 SSE - 10
16.10.2017 15:00:00 24,0 17,0 21 11 SSE - 10
16.10.2017 14:00:00 24,2 16,7 21 11 SE 1026,4 10
16.10.2017 13:00:00 23,0 17,0 16 9 SSE - 10
16.10.2017 12:00:00 24,0 16,0 11 6 SSE - 10
16.10.2017 11:00:00 22,2 17,5 8 4 S 1027,9 10
16.10.2017 10:00:00 17,0 14,0 4 2 NE - 10
16.10.2017 09:00:00 12,0 10,0 5 3 NO - 10
16.10.2017 08:00:00 10,6 8,5 9 5 NO 1027,1 10
16.10.2017 07:00:00 11,0 9,0 8 4 NNO - 10
16.10.2017 06:00:00 10,0 9,0 4 2 ONO - 10
16.10.2017 05:00:00 10,8 9,2 2 1 ONO 1026,9 10
16.10.2017 04:00:00 10,0 8,0 2 1 SSO - 10
16.10.2017 03:00:00 13,0 11,0 5 3 NE - 10
16.10.2017 02:00:00 13,2 10,7 5 3 NNE 1027,6 10
16.10.2017 01:00:00 13,0 11,0 5 3 NNE - 10
16.10.2017 00:00:00 14,0 12,0 4 2 ENE - 10
15.10.2017 23:00:00 15,0 13,4 5 3 E 1027,5 10
15.10.2017 22:00:00 16,0 14,0 5 3 ESE - 10
15.10.2017 21:00:00 18,0 16,0 4 2 SE - 10
15.10.2017 20:00:00 18,8 17,1 9 5 SE 1027,2 10
15.10.2017 19:00:00 20,0 18,0 18 10 SE - 10
15.10.2017 18:00:00 21,0 17,0 16 9 SSE - 10
15.10.2017 17:00:00 23,4 17,8 21 11 SSE 1026,6 10
15.10.2017 16:00:00 24,0 16,0 16 9 SSE - 10
15.10.2017 15:00:00 25,0 15,0 13 7 SE - 10
15.10.2017 14:00:00 25,4 13,9 5 3 SSE 1027,7 10
15.10.2017 13:00:00 25,0 15,0 8 4 ESE - 10
15.10.2017 12:00:00 24,0 15,0 4 2 ESE - 10
15.10.2017 11:00:00 21,4 16,6 2 1 NNE 1028,9 10
15.10.2017 10:00:00 18,0 16,0 5 3 NNO - 10
15.10.2017 09:00:00 15,0 14,0 4 2 N - 10
15.10.2017 08:00:00 12,0 11,1 5 3 NNO 1028,3 10
15.10.2017 07:00:00 13,0 13,0 8 4 NO - 10
15.10.2017 06:00:00 15,0 14,0 8 4 NNO - 10
15.10.2017 05:00:00 15,4 14,9 4 2 N 1027,7 10
15.10.2017 04:00:00 16,0 15,0 5 3 NNO - 10
15.10.2017 03:00:00 17,0 17,0 8 4 NO - 10
15.10.2017 02:00:00 18,2 17,6 4 2 ENE 1027,7 10
15.10.2017 01:00:00 19,0 18,0 5 3 NE - 10
15.10.2017 00:00:00 19,0 18,0 2 1 NNE - 10
14.10.2017 23:00:00 19,0 18,0 5 3 S 1027,9 10
14.10.2017 22:00:00 20,0 18,0 8 4 S - 10
14.10.2017 21:00:00 21,0 19,0 9 5 SSE - 10
14.10.2017 20:00:00 21,0 18,6 11 6 SE 1026,7 10
14.10.2017 19:00:00 21,0 18,0 18 10 SSE - 10
14.10.2017 18:00:00 23,0 18,0 21 11 SSE - 10
14.10.2017 17:00:00 25,0 19,2 18 10 SSE 1025,8 10
14.10.2017 16:00:00 27,0 18,0 15 8 SSE - 10
14.10.2017 15:00:00 27,0 18,0 16 9 SSE - 10
14.10.2017 14:00:00 27,6 18,3 9 5 S 1026,5 10
14.10.2017 13:00:00 25,0 18,0 5 3 ONO - 10
14.10.2017 12:00:00 26,0 21,0 5 3 SSO - 10
14.10.2017 11:00:00 23,0 21,1 8 4 NO 1026,8 10
14.10.2017 10:00:00 20,0 19,0 4 2 NO - 10
14.10.2017 09:00:00 17,0 16,0 4 2 NO - 10

tt = Temperatura
td = dewpoint
ff = velocità del vento
dd = direzione del vento
ppp = reduced air pressure
vv = visibility

Stazioni seguenti

WeatherPro
AMSI
MeteoEarth